GW3313 Weather Reports


Display with metric or nautical units.
time (UTC)temp
F
wind
direction
speed
MPH
gust
MPH
rain 1hr
in
rain 24hr
in
rain mn
in
humidity
%
barometer
mb
20260506135017 75 0.0 1.0 0.00 0.00 0.00 90 1009.0
20260506134037 75 0.0 2.0 0.00 0.00 0.00 90 1009.1
20260506133017 75 0.0 2.0 0.00 0.00 0.00 91 1008.9
20260506132017 75 0.0 1.0 0.00 0.00 0.00 91 1009.0
20260506131017 75 0.0 2.0 0.00 0.00 0.00 91 1009.0
20260506130017 75 0.0 2.0 0.00 0.00 0.00 91 1008.8
20260506125017 74 0.0 3.0 0.00 0.00 0.00 91 1008.8
20260506124017 74 0.0 0.0 0.00 0.00 0.00 91 1008.8
20260506123037 74 0.0 0.0 0.00 0.00 0.00 91 1008.9
20260506122017 74 0.0 0.0 0.00 0.00 0.00 91 1009.0
20260506121017 74 0.0 0.0 0.00 0.00 0.00 91 1008.8
20260506120017 74 0.0 0.0 0.00 0.00 0.00 90 1008.6
20260506115017 74 0.0 0.0 0.00 0.00 0.00 90 1008.6
20260506114017 74 0.0 0.0 0.00 0.00 0.00 90 1008.6
20260506113017 74 0.0 0.0 0.00 0.00 0.00 90 1008.7
20260506112017 74 0.0 0.0 0.00 0.00 0.00 90 1008.7
20260506111037 74 0.0 0.0 0.00 0.00 0.00 90 1008.6
20260506110017 74 0.0 0.0 0.00 0.00 0.00 90 1008.4
20260506105017 75 0.0 0.0 0.00 0.00 0.00 90 1008.2
20260506104017 75 0.0 0.0 0.00 0.00 0.00 90 1008.4
20260506103017 75 0.0 2.0 0.00 0.00 0.00 90 1008.1
20260506102037 75 0.0 1.0 0.00 0.00 0.00 90 1008.0
20260506101037 75 0.0 5.0 0.00 0.00 0.00 90 1007.8
20260506100036 75 0.0 3.0 0.00 0.00 0.00 90 1007.7
20260506095037 75 180 1.0 6.0 0.00 0.00 0.00 90 1007.7
20260506094017 75 180 1.0 5.0 0.00 0.00 0.00 90 1007.6
20260506093017 75 180 1.0 6.0 0.00 0.00 0.00 90 1007.5
20260506092037 75 158 1.0 4.0 0.00 0.00 0.00 90 1007.5
20260506091016 75 0.0 4.0 0.00 0.00 0.00 90 1007.4
20260506090016 75 0.0 5.0 0.00 0.00 0.00 90 1007.4
20260506085016 75 0.0 4.0 0.00 0.00 0.00 90 1007.3
20260506084016 75 0.0 3.0 0.00 0.00 0.00 90 1007.4
20260506083037 75 0.0 4.0 0.00 0.00 0.00 90 1007.4
20260506082017 75 0.0 4.0 0.00 0.00 0.00 90 1007.3
20260506081016 75 0.0 2.0 0.00 0.00 0.00 90 1007.5
20260506073016 75 0.0 4.0 0.00 0.00 0.00 89 1007.8
20260506072036 75 180 1.0 7.0 0.00 0.00 0.00 89 1008.0
20260506071016 75 180 1.0 6.0 0.00 0.00 0.00 89 1008.0
20260506062016 75 180 1.0 7.0 0.00 0.00 0.00 89 1007.8
20260506061016 75 180 2.0 9.0 0.00 0.00 0.00 89 1007.8
20260506051016 75 0.0 5.0 0.00 0.00 0.00 88 1008.0
20260506045017 76 180 1.0 7.0 0.00 0.00 0.00 88 1007.8
20260506044017 76 180 1.0 7.0 0.00 0.00 0.00 87 1007.9
20260506043017 76 180 1.0 7.0 0.00 0.00 0.00 87 1008.0
20260506042017 76 0.0 4.0 0.00 0.00 0.00 87 1007.8
20260506041017 76 180 1.0 6.0 0.00 0.00 0.00 87 1007.8
20260506040017 76 180 1.0 4.0 0.00 0.00 0.00 87 1007.7
20260506035017 77 0.0 3.0 0.00 0.00 0.00 86 1007.6
20260506034037 77 0.0 4.0 0.00 0.00 0.00 86 1007.5
20260506033017 77 90 1.0 6.0 0.00 0.00 0.00 86 1007.2
20260506032017 77 180 1.0 6.0 0.00 0.00 0.00 85 1007.1
20260506031057 77 0.0 0.0 0.00 0.00 0.00 85 1007.0
20260506030037 77 0.0 4.0 0.00 0.00 0.00 84 1006.7
20260506025017 78 180 1.0 5.0 0.00 0.00 0.00 84 1006.7
20260506024017 78 180 1.0 8.0 0.00 0.00 0.00 83 1006.5
20260506023016 78 180 1.0 4.0 0.00 0.00 0.00 82 1006.3
20260506022016 78 135 1.0 3.0 0.00 0.00 0.00 82 1005.9
20260506021016 78 68 1.0 4.0 0.00 0.00 0.00 81 1005.8
20260506020036 79 0.0 2.0 0.00 0.00 0.00 80 1005.7
20260506015037 79 0.0 2.0 0.00 0.00 0.00 79 1005.6
20260506014017 79 0.0 3.0 0.00 0.00 0.00 79 1005.6
20260506013037 80 0.0 1.0 0.00 0.00 0.00 77 1005.5
20260506012037 80 0.0 1.0 0.00 0.00 0.00 76 1005.6
20260506011037 81 0.0 1.0 0.00 0.00 0.00 76 1005.7
20260506010017 81 0.0 2.0 0.00 0.00 0.00 75 1005.6
20260506005017 82 0.0 2.0 0.00 0.00 0.00 75 1005.6
20260506004036 82 0.0 3.0 0.00 0.00 0.00 74 1005.3
20260506003017 82 0.0 2.0 0.00 0.00 0.00 74 1005.5
20260506002017 82 180 1.0 5.0 0.00 0.00 0.00 73 1005.3
20260506001016 83 180 1.0 5.0 0.00 0.00 0.00 73 1005.2
20260506000016 83 180 1.0 6.0 0.00 0.00 0.00 72 1005.2
20260505235017 83 0.0 7.0 0.00 0.00 0.00 72 1005.2
20260505234016 83 180 1.0 6.0 0.00 0.00 0.00 71 1005.1
20260505233016 83 158 1.0 5.0 0.00 0.00 0.00 71 1005.0
20260505232016 83 135 1.0 3.0 0.00 0.00 0.00 71 1005.1
20260505231016 83 180 1.0 4.0 0.00 0.00 0.00 70 1005.1
20260505230016 83 180 1.0 6.0 0.00 0.00 0.00 69 1005.0
20260505225016 83 180 1.0 9.0 0.00 0.00 0.00 69 1005.1
20260505224016 84 158 1.0 5.0 0.00 0.00 0.00 69 1005.0
20260505223016 84 158 1.0 10.0 0.00 0.00 0.00 69 1005.1
20260505222036 84 180 1.0 7.0 0.00 0.00 0.00 68 1004.9
20260505221016 84 158 1.0 7.0 0.00 0.00 0.00 68 1005.1
20260505220016 84 180 1.0 7.0 0.00 0.00 0.00 69 1005.2
20260505215016 84 158 2.0 8.0 0.00 0.00 0.00 68 1005.3
20260505214016 84 180 2.0 7.0 0.00 0.00 0.00 68 1005.5
20260505213016 84 180 3.0 12.0 0.00 0.00 0.00 68 1005.5
20260505212016 85 158 2.0 9.0 0.00 0.00 0.00 67 1005.5
20260505211016 84 180 2.0 7.0 0.00 0.00 0.00 68 1005.8
20260505210016 84 180 3.0 11.0 0.00 0.00 0.00 69 1005.9
20260505205016 84 158 1.0 10.0 0.00 0.00 0.00 68 1006.0
20260505204016 83 180 2.0 10.0 0.00 0.00 0.00 70 1006.3
20260505203016 82 158 1.0 8.0 0.00 0.00 0.00 71 1006.7
20260505202016 82 180 2.0 7.0 0.00 0.00 0.00 72 1006.8
20260505201016 82 180 2.0 9.0 0.00 0.00 0.00 72 1006.9
20260505200016 82 203 2.0 9.0 0.00 0.00 0.00 72 1006.8
20260505195016 82 158 1.0 4.0 0.00 0.00 0.00 73 1007.1
20260505194016 81 180 2.0 12.0 0.00 0.00 0.00 74 1007.0
20260505193016 81 158 2.0 8.0 0.00 0.00 0.00 74 1007.1
20260505192015 81 180 1.0 8.0 0.00 0.00 0.00 75 1007.3
20260505191016 80 180 2.0 15.0 0.00 0.00 0.00 75 1007.3
20260505190016 80 180 1.0 6.0 0.00 0.00 0.00 76 1007.5
20260505185016 80 158 1.0 9.0 0.00 0.00 0.00 77 1007.7
20260505184015 80 180 2.0 7.0 0.00 0.00 0.00 77 1007.8
20260505183036 79 180 1.0 6.0 0.00 0.00 0.00 79 1007.9
20260505182015 78 158 2.0 8.0 0.00 0.00 0.00 79 1007.9
20260505181016 77 158 1.0 9.0 0.00 0.00 0.00 81 1007.9
20260505180016 77 180 1.0 8.0 0.00 0.00 0.00 82 1008.1
20260505175016 76 158 1.0 5.0 0.00 0.00 0.00 83 1008.4
20260505174016 76 158 1.0 4.0 0.00 0.00 0.00 84 1008.3
20260505173016 75 180 1.0 5.0 0.00 0.00 0.00 84 1008.4
20260505172015 75 203 1.0 5.0 0.00 0.00 0.00 84 1008.4
20260505171016 75 180 1.0 7.0 0.00 0.00 0.00 84 1008.4
20260505170015 74 180 1.0 6.0 0.00 0.00 0.00 85 1008.5
20260505165015 74 180 1.0 7.0 0.00 0.00 0.00 86 1008.3
20260505164015 74 180 1.0 10.0 0.00 0.00 0.00 86 1008.4
20260505163015 73 180 1.0 6.0 0.00 0.00 0.00 87 1008.4
20260505162015 73 180 1.0 5.0 0.00 0.00 0.00 88 1008.5
20260505161016 72 158 1.0 5.0 0.00 0.00 0.00 89 1008.4
20260505153018 71 0.0 3.0 0.00 0.00 0.00 89 1008.4
20260505152017 71 180 1.0 8.0 0.00 0.00 0.00 90 1008.3
20260505151038 71 0.0 4.0 0.00 0.00 0.00 90 1008.2